[[{"header":{"parameterUnit":"m.s-1","parameterCategory":1,"la1":30.2991,"la2":30.254,"lo1":-89.0895,"lo2":-89.0444,"dy":0.0017,"dx":0.0017,"nx":28,"ny":28,"refTime":"2024-08-02T21:00:00:Z","depth":0,"parameterNumber":2,"parameterNumberName":"U-component_of_WINDS"},"data":[0,0,0,0,0,0,0,0,0,0,0,0,0,0,0,0,0,0,0,0,0,0,0,0,0,0,0,0,0,0,0,0,0,0,0,0,0,0,0,0,0,0,0,0,0,0,0,0,0,0,0,0,0,0,0,0,0,0,1.4566,1.4567,0,1.4664,1.4665,1.4667,1.469,1.4689,1.4689,1.4688,1.4792,1.4795,1.4799,0,0,0,0,0,0,0,0,0,0,0,0,0,1.4402,1.4404,1.4566,1.4567,1.4568,1.4664,1.4666,1.4667,1.469,1.4689,1.4689,1.4688,1.4791,1.4795,1.4799,0,0,0,0,0,0,0,0,0,0,0,0,0,1.4484,1.4405,1.4565,1.4591,1.4594,1.4664,1.4666,1.4667,1.469,1.4689,1.4688,1.4687,1.479,1.4795,1.48,1.4851,0,0,1.4815,1.4817,0,0,0,0,0,0,0,0,1.4479,1.449,1.4586,1.4589,1.4593,1.4664,1.4646,1.4729,1.4691,1.4654,1.4688,1.4687,1.475,1.4759,1.4779,1.4856,1.4861,1.4816,1.4819,1.4821,1.4822,0,0,0,0,0,0,0,1.4473,1.4486,1.4605,1.4588,1.4592,1.4599,1.461,1.4662,1.4707,1.4657,1.4659,1.467,1.4752,1.4774,1.4782,1.4862,1.4815,1.482,1.4823,1.4825,1.4989,1.499,0,0,0,0,0,0,1.4463,1.4481,1.4602,1.4608,1.4532,1.4603,1.4615,1.4642,1.4706,1.4715,1.4671,1.4671,1.4766,1.4776,1.4786,1.4852,1.4821,1.4826,1.4829,1.4987,1.4989,1.499,0,0,0,0,0,0,1.4459,1.4473,1.4598,1.4545,1.4561,1.4607,1.4637,1.4645,1.4667,1.4717,1.4725,1.4685,1.4766,1.4779,1.4835,1.4855,1.4828,1.4833,1.4986,1.4988,1.499,1.4982,0,0,0,0,0,0,1.4454,1.4472,1.449,1.4545,1.4564,1.4644,1.4639,1.4647,1.4675,1.4676,1.4732,1.4741,1.4766,1.4827,1.484,1.4862,1.4837,1.4984,1.4987,1.4989,1.4981,1.4984,1.4986,0,0,0,0,0,1.4448,1.4485,1.4491,1.4506,1.4588,1.4645,1.4656,1.4683,1.4677,1.4697,1.4729,1.4739,1.4851,1.4833,1.4848,1.4871,1.4983,1.4986,1.4989,1.498,1.4983,1.4986,0,0,0,0,0,0,1.4432,1.4492,1.45,1.4555,1.4595,1.4649,1.4674,1.4686,1.4729,1.4728,1.4761,1.4774,1.4829,1.4856,1.4834,1.4926,1.4917,1.4923,1.4906,1.4909,1.4912,1.4904,1.4841,0,0,0,0,0,1.4434,1.4474,1.4525,1.4569,1.4588,1.4628,1.4654,1.4672,1.4715,1.4731,1.4768,1.481,1.4855,1.4884,1.4928,1.4986,1.4999,1.5009,1.5012,1.5014,1.5018,1.5053,1.5058,1.5,1.5,1.5,0,0,1.444,1.4478,1.4501,1.4567,1.4599,1.4641,1.4642,1.4686,1.4718,1.4739,1.4794,1.4822,1.4872,1.4929,1.4957,1.4954,1.5038,1.5018,1.5019,1.5022,1.5056,1.5062,1.5067,1.5002,1.5001,1.5001,0,0,1.4472,1.4505,1.4545,1.4578,1.4628,1.4655,1.4664,1.4717,1.4737,1.4793,1.481,1.485,1.4926,1.4961,1.4988,1.5037,1.5048,1.505,1.5064,1.5097,1.5101,1.5106,1.5124,1.513,1.5055,1.5055,1.5055,0,1.4473,1.4536,1.4565,1.4608,1.4637,1.4658,1.4701,1.4732,1.4794,1.4814,1.481,1.4907,1.4942,1.5009,1.5021,1.5042,1.5056,1.5043,1.5098,1.5103,1.5107,1.5125,1.5131,1.5055,1.5055,1.5055,1.5055,0,1.4536,1.4579,1.4606,1.4665,1.4697,1.474,1.4777,1.4807,1.4823,1.485,1.4909,1.4951,1.5005,1.5022,1.5038,1.5092,1.5089,1.5091,1.5083,1.5112,1.5129,1.5136,1.5055,1.5055,1.5055,1.5055,0,0,1.4557,1.4634,1.4643,1.4671,1.4728,1.4763,1.4808,1.486,1.4885,1.4928,1.4968,1.5033,1.5036,1.5067,1.5088,1.5117,1.5154,1.5116,1.5118,1.5122,1.5217,1.5215,1.5222,1.5162,1.5163,1.5165,1.5213,0,1.4597,1.4676,1.4705,1.4771,1.4812,1.4834,1.4874,1.4914,1.4942,1.4982,1.5014,1.506,1.506,1.5079,1.5109,1.5143,1.5174,1.514,1.52,1.5202,1.5186,1.5231,1.5228,1.5272,1.522,1.5221,1.5222,0,1.4652,1.4696,1.4765,1.482,1.4838,1.4873,1.4924,1.4962,1.501,1.5028,1.5064,1.5084,1.5133,1.5123,1.5193,1.517,1.5196,1.5217,1.522,1.5226,1.5213,1.5238,1.5286,1.5293,1.5233,1.5232,1.5231,0,1.4662,1.4738,1.479,1.4813,1.4878,1.4902,1.493,1.4977,1.5007,1.5052,1.5073,1.5124,1.5151,1.5191,1.5224,1.5214,1.5292,1.5284,1.5309,1.5308,1.5323,1.5322,1.5376,1.5341,1.5341,1.5341,1.5341,0,1.4702,1.4744,1.4795,1.4827,1.4876,1.491,1.4957,1.4987,1.5029,1.5068,1.5091,1.5128,1.517,1.5213,1.5239,1.5293,1.5306,1.5323,1.533,1.5321,1.5318,1.5338,1.5336,1.5343,1.5342,1.5342,1.5342,0,1.472,1.4756,1.4814,1.4871,1.4887,1.492,1.497,1.5003,1.5032,1.5082,1.5096,1.5143,1.5194,1.5232,1.5299,1.5317,1.5375,1.5382,1.5358,1.5362,1.5385,1.5382,1.5453,1.5464,1.5422,1.5422,1.5422,0,1.4743,1.4776,1.4837,1.4865,1.4893,1.4937,1.4969,1.5004,1.5036,1.5094,1.5121,1.5174,1.5218,1.53,1.5341,1.5393,1.5401,1.5422,1.5408,1.5399,1.5401,1.5398,1.5402,1.5424,1.5424,1.5424,1.5424,0,1.478,1.4797,1.484,1.4891,1.4928,1.497,1.5012,1.5034,1.5077,1.5113,1.5165,1.52,1.5269,1.5322,1.5378,1.5409,1.5424,1.5429,1.5437,1.5428,1.5413,1.5422,1.5364,1.5426,1.5426,1.5426,1.5426,1.5426,1.4801,1.4832,1.488,1.4929,1.4965,1.5004,1.5038,1.5073,1.5118,1.5176,1.5195,1.525,1.5299,1.5376,1.5408,1.5453,1.5452,1.5464,1.5467,1.547,1.5469,1.5407,1.5463,1.5463,1.5463,1.5463,1.5463,0,1.4839,1.4872,1.4917,1.4975,1.5014,1.5026,1.5074,1.5106,1.5154,1.5198,1.5242,1.5304,1.5356,1.5402,1.5456,1.5483,1.5492,1.5497,1.5495,1.5502,1.5467,1.5454,1.5489,1.5489,1.5489,1.5489,1.5489,1.5489,1.4864,1.4917,1.494,1.5013,1.5046,1.5099,1.5126,1.5163,1.5199,1.5267,1.531,1.534,1.5385,1.5444,1.5493,1.5505,1.5524,1.5527,1.5541,1.5507,1.5504,1.5501,1.5489,1.5531,1.5531,1.5572,1.5573,1.5573]},{"header":{"parameterUnit":"m.s-1","parameterCategory":1,"la1":30.2991,"la2":30.254,"lo1":-89.0895,"lo2":-89.0444,"dy":0.0017,"dx":0.0017,"nx":28,"ny":28,"refTime":"2024-08-02T21:00:00:Z","depth":0,"parameterNumber":3,"parameterNumberName":"V-component_of_WINDS"},"data":[0,0,0,0,0,0,0,0,0,0,0,0,0,0,0,0,0,0,0,0,0,0,0,0,0,0,0,0,0,0,0,0,0,0,0,0,0,0,0,0,0,0,0,0,0,0,0,0,0,0,0,0,0,0,0,0,0,0,3.0639,3.0641,0,3.0828,3.083,3.0832,3.0865,3.0863,3.0861,3.086,3.1054,3.1061,3.1067,0,0,0,0,0,0,0,0,0,0,0,0,0,3.0304,3.031,3.0639,3.0641,3.0643,3.0827,3.083,3.0832,3.0865,3.0863,3.0861,3.0859,3.1052,3.106,3.1068,0,0,0,0,0,0,0,0,0,0,0,0,0,3.0467,3.0312,3.0638,3.0682,3.0687,3.0827,3.083,3.0833,3.0865,3.0863,3.086,3.0858,3.1049,3.1059,3.1069,3.1178,0,0,3.1099,3.1104,0,0,0,0,0,0,0,0,3.0458,3.0479,3.0673,3.0679,3.0686,3.082,3.0783,3.0949,3.0866,3.0798,3.086,3.0857,3.0978,3.0994,3.1035,3.1188,3.1196,3.11,3.1106,3.1111,3.1113,0,0,0,0,0,0,0,3.0446,3.0471,3.0714,3.0676,3.0684,3.0691,3.0712,3.0815,3.0899,3.0804,3.0806,3.0828,3.0981,3.1025,3.1039,3.1199,3.11,3.1109,3.1115,3.1119,3.1446,3.1449,0,0,0,0,0,0,3.0427,3.0462,3.0708,3.0719,3.0563,3.0699,3.0722,3.0779,3.0898,3.0914,3.083,3.0829,3.1009,3.1028,3.1046,3.1179,3.111,3.112,3.1126,3.1443,3.1447,3.1449,0,0,0,0,0,0,3.042,3.0449,3.07,3.0591,3.0624,3.0707,3.0772,3.0784,3.0828,3.0918,3.0933,3.0859,3.1008,3.1032,3.1144,3.1186,3.1124,3.1133,3.144,3.1444,3.1448,3.1448,0,0,0,0,0,0,3.041,3.0446,3.049,3.0592,3.0629,3.0795,3.0774,3.079,3.0845,3.0846,3.095,3.0964,3.1008,3.1129,3.1154,3.1199,3.1141,3.1437,3.1442,3.1447,3.1444,3.1451,3.1457,0,0,0,0,0,3.0398,3.0483,3.0492,3.0521,3.0685,3.0798,3.0819,3.0867,3.0848,3.0892,3.0949,3.0961,3.1178,3.114,3.1169,3.1217,3.1434,3.144,3.1446,3.1441,3.145,3.1457,0,0,0,0,0,0,3.0385,3.0498,3.0508,3.0629,3.0703,3.0803,3.086,3.0875,3.0957,3.0954,3.101,3.1033,3.1141,3.1191,3.1147,3.1327,3.1305,3.1317,3.1291,3.13,3.1306,3.1291,3.115,0,0,0,0,0,3.0396,3.0478,3.0572,3.0669,3.0706,3.0776,3.0827,3.0857,3.0937,3.0968,3.1034,3.1111,3.1195,3.1251,3.1334,3.1451,3.1473,3.1499,3.1505,3.151,3.1519,3.1581,3.1592,3.1469,3.1469,3.1469,0,0,3.042,3.0491,3.054,3.0668,3.0729,3.0812,3.0802,3.0892,3.0953,3.0982,3.1091,3.1141,3.123,3.1344,3.1398,3.1389,3.1558,3.1518,3.1521,3.1528,3.1588,3.16,3.161,3.1474,3.1473,3.1472,0,0,3.0505,3.0568,3.0654,3.0715,3.0807,3.0852,3.0873,3.097,3.1004,3.1113,3.1136,3.1209,3.1356,3.1417,3.1467,3.157,3.1583,3.1596,3.1629,3.1689,3.1698,3.1707,3.1741,3.1753,3.1605,3.1605,3.1605,0,3.0523,3.0648,3.0697,3.0783,3.0837,3.0866,3.0952,3.1009,3.1124,3.116,3.1148,3.1329,3.1392,3.1518,3.1543,3.1584,3.1607,3.1584,3.1693,3.1702,3.1711,3.1744,3.1757,3.1606,3.1606,3.1606,3.1606,0,3.0664,3.075,3.0809,3.0916,3.0977,3.1064,3.1124,3.1179,3.1203,3.1249,3.1358,3.1434,3.1531,3.1563,3.1589,3.1692,3.1683,3.1682,3.166,3.1723,3.1754,3.1768,3.1607,3.1607,3.1607,3.1606,0,0,3.0748,3.0878,3.0899,3.0946,3.1048,3.1115,3.1201,3.1295,3.134,3.1418,3.149,3.1611,3.1608,3.1665,3.1697,3.1749,3.1822,3.1741,3.1744,3.1751,3.1937,3.1936,3.195,3.1831,3.1834,3.1836,3.1928,0,3.0842,3.0996,3.104,3.117,3.1248,3.1275,3.1349,3.1419,3.1463,3.1535,3.1585,3.1668,3.1661,3.1695,3.1748,3.1802,3.186,3.1796,3.1897,3.19,3.1872,3.1967,3.1968,3.2052,3.1941,3.1944,3.1945,0,3.0975,3.1052,3.1188,3.1276,3.131,3.1377,3.1464,3.1534,3.1612,3.164,3.1701,3.1728,3.1816,3.1789,3.1911,3.1866,3.191,3.1942,3.1947,3.1957,3.1925,3.1978,3.208,3.2092,3.1966,3.1964,3.1963,0,3.1018,3.1156,3.1255,3.1295,3.1401,3.1446,3.1492,3.1568,3.162,3.1697,3.1731,3.1817,3.1863,3.1928,3.1976,3.1953,3.2092,3.207,3.2117,3.2115,3.2144,3.2142,3.2253,3.2175,3.2175,3.2175,3.2175,0,3.1118,3.12,3.1275,3.1336,3.1427,3.1476,3.1565,3.1612,3.1678,3.1747,3.1776,3.184,3.19,3.1972,3.201,3.2102,3.2124,3.2148,3.2157,3.2145,3.2141,3.2173,3.2168,3.2178,3.2177,3.2177,3.2176,0,3.1182,3.1236,3.1345,3.1435,3.1459,3.1522,3.1598,3.1657,3.1701,3.1788,3.1811,3.1881,3.1966,3.202,3.2129,3.2154,3.2254,3.2263,3.2228,3.2231,3.2273,3.2268,3.2408,3.2428,3.2338,3.2339,3.234,0,3.1242,3.1305,3.1401,3.1448,3.1494,3.1571,3.1623,3.1673,3.1727,3.1818,3.1865,3.1952,3.2023,3.2158,3.2217,3.23,3.2309,3.2352,3.2321,3.2306,3.2306,3.2301,3.2306,3.2357,3.2357,3.2358,3.2358,0,3.1341,3.1364,3.1438,3.1521,3.1582,3.165,3.1718,3.1755,3.1816,3.1874,3.1961,3.2016,3.2126,3.221,3.2297,3.2344,3.2361,3.2367,3.2382,3.2369,3.2345,3.2356,3.2239,3.2364,3.2363,3.2363,3.2363,3.2362,3.1404,3.1459,3.1534,3.1615,3.167,3.1732,3.179,3.184,3.1913,3.2005,3.203,3.212,3.2193,3.2311,3.2359,3.2429,3.2423,3.2445,3.245,3.2454,3.2453,3.2335,3.2445,3.2445,3.2445,3.2445,3.2445,0,3.1502,3.155,3.1624,3.1717,3.1779,3.1789,3.1863,3.1915,3.1993,3.206,3.2129,3.2226,3.2307,3.2372,3.2455,3.2498,3.2508,3.2518,3.2515,3.2524,3.2455,3.2433,3.2509,3.2509,3.2509,3.2509,3.2509,3.2509,3.1561,3.1654,3.1684,3.1804,3.1853,3.194,3.1981,3.2037,3.209,3.2197,3.2264,3.2305,3.237,3.2458,3.2532,3.2548,3.2577,3.2585,3.2603,3.2537,3.253,3.2523,3.2502,3.2591,3.2592,3.2666,3.2667,3.2668]}]]